Location: ?????????
(53.2086°N, 54.0693°E)
Time: 23:57:35
(UTC+00:00)

Cosmos 1943 Rocket - Pass Details

Date: 08 December 2019
Orbit: 812 x 843 km, 71.0° (Epoch: 27 January)

Event Time Altitude Azimuth Distance (km) Brightness Sun altitude
Rises 15:09:08 0° 328° (NNW) 3,412 5.7 -25.9°
Reaches altitude 10° 15:11:37 10° 331° (NNW) 2,471 4.9 -26.3°
Enters shadow 15:16:24 57° 9° (N) 983 2.4 -27.0°
